| time (UTC) | temp F | wind direction | speed MPH | gust MPH | rain 1hr in | rain 24hr in | rain mn in | humidity % | barometer mb |
| 20260505023051 | 59 | 187 | 0.0 | 0.0 | 0.00 | 0.00 | 0.00 | 71 | 1017.9 |
| 20260505022548 | 59 | 195 | 0.0 | 0.0 | 0.00 | 0.00 | 0.00 | 71 | 1017.7 |
| 20260505022045 | 59 | 200 | 0.0 | 0.0 | 0.00 | 0.00 | 0.00 | 71 | 1017.8 |
| 20260505021541 | 59 | 210 | 0.0 | 0.0 | 0.00 | 0.00 | 0.00 | 71 | 1017.8 |
| 20260505021038 | 60 | 217 | 0.0 | 0.0 | 0.00 | 0.00 | 0.00 | 70 | 1018.0 |
| 20260505020538 | 60 | 229 | 0.0 | 0.0 | 0.00 | 0.00 | 0.00 | 68 | 1017.9 |
| 20260505020036 | 61 | 191 | 0.0 | 0.0 | 0.00 | 0.00 | 0.00 | 68 | 1017.7 |
| 20260505015533 | 61 | 191 | 0.0 | 0.0 | 0.00 | 0.00 | 0.00 | 68 | 1017.7 |
| 20260505015029 | 61 | 218 | 0.0 | 0.0 | 0.00 | 0.00 | 0.00 | 70 | 1017.5 |
| 20260505014526 | 62 | 236 | 0.0 | 0.0 | 0.00 | 0.00 | 0.00 | 67 | 1017.8 |
| 20260505014024 | 62 | 220 | 0.0 | 0.0 | 0.00 | 0.00 | 0.00 | 66 | 1017.6 |
| 20260505013521 | 62 | 219 | 0.0 | 0.0 | 0.00 | 0.00 | 0.00 | 63 | 1017.5 |
| 20260505013018 | 62 | 195 | 0.0 | 0.0 | 0.00 | 0.00 | 0.00 | 63 | 1017.5 |
| 20260505012516 | 63 | 209 | 0.0 | 0.0 | 0.00 | 0.00 | 0.00 | 62 | 1017.5 |
| 20260505012013 | 63 | 198 | 0.0 | 0.0 | 0.00 | 0.00 | 0.00 | 60 | 1017.4 |
| 20260505011508 | 64 | 197 | 0.0 | 0.0 | 0.00 | 0.00 | 0.00 | 60 | 1017.2 |
| 20260505011005 | 64 | 198 | 0.0 | 0.0 | 0.00 | 0.00 | 0.00 | 59 | 1017.4 |
| 20260505010501 | 65 | 193 | 0.0 | 0.0 | 0.00 | 0.00 | 0.00 | 57 | 1017.3 |
| 20260505005957 | 65 | 193 | 0.0 | 0.0 | 0.00 | 0.00 | 0.00 | 57 | 1017.1 |
| 20260505005454 | 66 | 193 | 0.0 | 0.0 | 0.00 | 0.00 | 0.00 | 57 | 1017.1 |
| 20260505004952 | 66 | 188 | 0.0 | 0.0 | 0.00 | 0.00 | 0.00 | 55 | 1017.0 |
| 20260505004448 | 67 | 164 | 1.0 | 1.0 | 0.00 | 0.00 | 0.00 | 53 | 1017.0 |
| 20260505003945 | 67 | 209 | 0.0 | 0.0 | 0.00 | 0.00 | 0.00 | 52 | 1017.2 |
| 20260505003442 | 68 | 204 | 0.0 | 0.0 | 0.00 | 0.00 | 0.00 | 51 | 1017.1 |
| 20260505002938 | 69 | 177 | 0.0 | 0.0 | 0.00 | 0.00 | 0.00 | 52 | 1016.8 |
| 20260505002435 | 69 | 208 | 0.0 | 0.0 | 0.00 | 0.00 | 0.00 | 49 | 1017.0 |
| 20260505001933 | 70 | 208 | 0.0 | 0.0 | 0.00 | 0.00 | 0.00 | 46 | 1016.9 |
| 20260505001431 | 71 | 196 | 0.0 | 0.0 | 0.00 | 0.00 | 0.00 | 45 | 1016.8 |
| 20260505000927 | 72 | 178 | 0.0 | 0.0 | 0.00 | 0.00 | 0.00 | 44 | 1016.6 |
| 20260505000428 | 73 | 193 | 0.0 | 0.0 | 0.00 | 0.00 | 0.00 | 41 | 1016.8 |
| 20260504235922 | 73 | 211 | 0.0 | 0.0 | 0.00 | 0.00 | 0.00 | 38 | 1016.9 |
| 20260504235420 | 74 | 208 | 0.0 | 0.0 | 0.00 | 0.00 | 0.00 | 37 | 1017.0 |
| 20260504234915 | 74 | 249 | 1.0 | 1.0 | 0.00 | 0.00 | 0.00 | 37 | 1017.1 |
| 20260504234413 | 75 | 170 | 0.0 | 0.0 | 0.00 | 0.00 | 0.00 | 36 | 1016.9 |
| 20260504233909 | 76 | 280 | 0.0 | 0.0 | 0.00 | 0.00 | 0.00 | 35 | 1017.2 |
| 20260504233405 | 76 | 213 | 0.0 | 1.0 | 0.00 | 0.00 | 0.00 | 35 | 1017.0 |
| 20260504232902 | 77 | 303 | 0.0 | 1.0 | 0.00 | 0.00 | 0.00 | 35 | 1016.9 |
| 20260504232359 | 77 | 237 | 0.0 | 0.0 | 0.00 | 0.00 | 0.00 | 34 | 1016.9 |
| 20260504231856 | 78 | 231 | 1.0 | 2.0 | 0.00 | 0.00 | 0.00 | 34 | 1016.9 |
| 20260504231352 | 78 | 216 | 2.0 | 3.0 | 0.00 | 0.00 | 0.00 | 32 | 1017.0 |
| 20260504230849 | 78 | 235 | 1.0 | 2.0 | 0.00 | 0.00 | 0.00 | 33 | 1016.9 |
| 20260504230346 | 78 | 188 | 3.0 | 4.0 | 0.00 | 0.00 | 0.00 | 32 | 1016.9 |
| 20260504225845 | 79 | 241 | 0.0 | 1.0 | 0.00 | 0.00 | 0.00 | 34 | 1016.9 |
| 20260504225341 | 79 | 214 | 1.0 | 2.0 | 0.00 | 0.00 | 0.00 | 32 | 1016.8 |
| 20260504224839 | 79 | 239 | 0.0 | 1.0 | 0.00 | 0.00 | 0.00 | 33 | 1016.8 |
| 20260504224335 | 78 | 214 | 0.0 | 0.0 | 0.00 | 0.00 | 0.00 | 33 | 1016.7 |
| 20260504223832 | 78 | 131 | 1.0 | 1.0 | 0.00 | 0.00 | 0.00 | 31 | 1016.7 |
| 20260504223327 | 78 | 247 | 2.0 | 2.0 | 0.00 | 0.00 | 0.00 | 29 | 1016.9 |
| 20260504222824 | 78 | 207 | 0.0 | 0.0 | 0.00 | 0.00 | 0.00 | 30 | 1016.8 |
| 20260504222321 | 78 | 182 | 1.0 | 1.0 | 0.00 | 0.00 | 0.00 | 30 | 1016.8 |
| 20260504221820 | 79 | 235 | 1.0 | 1.0 | 0.00 | 0.00 | 0.00 | 29 | 1016.7 |
| 20260504221316 | 78 | 245 | 2.0 | 3.0 | 0.00 | 0.00 | 0.00 | 27 | 1016.9 |
| 20260504220813 | 80 | 239 | 1.0 | 1.0 | 0.00 | 0.00 | 0.00 | 26 | 1016.9 |
| 20260504220310 | 79 | 244 | 0.0 | 1.0 | 0.00 | 0.00 | 0.00 | 29 | 1016.9 |
| 20260504215807 | 79 | 178 | 4.0 | 6.0 | 0.00 | 0.00 | 0.00 | 26 | 1017.0 |
| 20260504215304 | 80 | 266 | 4.0 | 4.0 | 0.00 | 0.00 | 0.00 | 26 | 1017.0 |
| 20260504214759 | 79 | 238 | 2.0 | 2.0 | 0.00 | 0.00 | 0.00 | 28 | 1016.9 |
| 20260504214256 | 78 | 176 | 1.0 | 2.0 | 0.00 | 0.00 | 0.00 | 29 | 1016.8 |
| 20260504213753 | 77 | 148 | 2.0 | 2.0 | 0.00 | 0.00 | 0.00 | 30 | 1017.0 |
| 20260504213249 | 78 | 196 | 4.0 | 6.0 | 0.00 | 0.00 | 0.00 | 31 | 1016.8 |
| 20260504212746 | 78 | 115 | 1.0 | 2.0 | 0.00 | 0.00 | 0.00 | 33 | 1016.9 |
| 20260504212243 | 78 | 117 | 6.0 | 8.0 | 0.00 | 0.00 | 0.00 | 31 | 1016.9 |
| 20260504211740 | 78 | 119 | 4.0 | 4.0 | 0.00 | 0.00 | 0.00 | 33 | 1017.0 |
| 20260504211236 | 78 | 105 | 2.0 | 2.0 | 0.00 | 0.00 | 0.00 | 33 | 1016.9 |
| 20260504210734 | 78 | 157 | 2.0 | 2.0 | 0.00 | 0.00 | 0.00 | 32 | 1017.0 |
| 20260504210231 | 78 | 225 | 0.0 | 1.0 | 0.00 | 0.00 | 0.00 | 35 | 1017.0 |
| 20260504205728 | 78 | 113 | 3.0 | 3.0 | 0.00 | 0.00 | 0.00 | 33 | 1017.0 |
| 20260504205226 | 79 | 131 | 4.0 | 4.0 | 0.00 | 0.00 | 0.00 | 32 | 1017.0 |
| 20260504204723 | 79 | 260 | 3.0 | 3.0 | 0.00 | 0.00 | 0.00 | 32 | 1016.9 |
| 20260504204222 | 79 | 231 | 0.0 | 0.0 | 0.00 | 0.00 | 0.00 | 35 | 1017.0 |
| 20260504203721 | 79 | 173 | 3.0 | 4.0 | 0.00 | 0.00 | 0.00 | 34 | 1017.0 |
| 20260504203218 | 78 | 227 | 3.0 | 3.0 | 0.00 | 0.00 | 0.00 | 33 | 1017.2 |
| 20260504202717 | 78 | 186 | 3.0 | 4.0 | 0.00 | 0.00 | 0.00 | 33 | 1017.1 |
| 20260504202215 | 78 | 224 | 0.0 | 0.0 | 0.00 | 0.00 | 0.00 | 33 | 1017.2 |
| 20260504201712 | 78 | 83 | 1.0 | 3.0 | 0.00 | 0.00 | 0.00 | 33 | 1017.4 |
| 20260504201209 | 80 | 265 | 2.0 | 2.0 | 0.00 | 0.00 | 0.00 | 32 | 1017.3 |
| 20260504200707 | 78 | 240 | 1.0 | 1.0 | 0.00 | 0.00 | 0.00 | 31 | 1017.6 |
| 20260504200203 | 79 | 109 | 3.0 | 4.0 | 0.00 | 0.00 | 0.00 | 33 | 1017.4 |
| 20260504195659 | 78 | 171 | 3.0 | 3.0 | 0.00 | 0.00 | 0.00 | 33 | 1017.4 |
| 20260504195155 | 78 | 121 | 2.0 | 3.0 | 0.00 | 0.00 | 0.00 | 33 | 1017.5 |
| 20260504194652 | 78 | 299 | 0.0 | 0.0 | 0.00 | 0.00 | 0.00 | 33 | 1017.9 |
| 20260504194148 | 78 | 274 | 2.0 | 3.0 | 0.00 | 0.00 | 0.00 | 31 | 1018.0 |
| 20260504193644 | 78 | 99 | 4.0 | 4.0 | 0.00 | 0.00 | 0.00 | 31 | 1018.0 |
| 20260504193143 | 77 | 175 | 2.0 | 2.0 | 0.00 | 0.00 | 0.00 | 32 | 1017.9 |
| 20260504192640 | 78 | 120 | 2.0 | 3.0 | 0.00 | 0.00 | 0.00 | 35 | 1017.8 |
| 20260504192138 | 77 | 237 | 2.0 | 2.0 | 0.00 | 0.00 | 0.00 | 34 | 1018.3 |
| 20260504191636 | 78 | 231 | 5.0 | 7.0 | 0.00 | 0.00 | 0.00 | 34 | 1018.2 |
| 20260504191132 | 79 | 150 | 2.0 | 3.0 | 0.00 | 0.00 | 0.00 | 33 | 1018.3 |
| 20260504190628 | 78 | 225 | 3.0 | 3.0 | 0.00 | 0.00 | 0.00 | 33 | 1018.3 |
| 20260504190125 | 76 | 233 | 0.0 | 0.0 | 0.00 | 0.00 | 0.00 | 33 | 1018.4 |
| 20260504185621 | 77 | 104 | 3.0 | 3.0 | 0.00 | 0.00 | 0.00 | 31 | 1018.6 |
| 20260504185118 | 78 | 254 | 2.0 | 2.0 | 0.00 | 0.00 | 0.00 | 33 | 1018.7 |
| 20260504184614 | 77 | 288 | 2.0 | 3.0 | 0.00 | 0.00 | 0.00 | 31 | 1018.6 |
| 20260504184109 | 76 | 346 | 1.0 | 2.0 | 0.00 | 0.00 | 0.00 | 32 | 1018.7 |
| 20260504183607 | 76 | 103 | 2.0 | 3.0 | 0.00 | 0.00 | 0.00 | 33 | 1018.9 |
| 20260504183104 | 76 | 225 | 0.0 | 1.0 | 0.00 | 0.00 | 0.00 | 33 | 1018.9 |
| 20260504182601 | 75 | 209 | 0.0 | 1.0 | 0.00 | 0.00 | 0.00 | 31 | 1018.8 |
| 20260504182059 | 76 | 143 | 1.0 | 2.0 | 0.00 | 0.00 | 0.00 | 32 | 1018.8 |
| 20260504181556 | 77 | 121 | 6.0 | 8.0 | 0.00 | 0.00 | 0.00 | 32 | 1018.7 |
| 20260504181054 | 77 | 211 | 0.0 | 0.0 | 0.00 | 0.00 | 0.00 | 39 | 1019.0 |
| 20260504180553 | 76 | 254 | 2.0 | 3.0 | 0.00 | 0.00 | 0.00 | 35 | 1018.9 |
| 20260504180051 | 74 | 186 | 5.0 | 6.0 | 0.00 | 0.00 | 0.00 | 35 | 1018.9 |
| 20260504175548 | 75 | 129 | 4.0 | 4.0 | 0.00 | 0.00 | 0.00 | 34 | 1019.1 |
| 20260504175045 | 74 | 93 | 1.0 | 2.0 | 0.00 | 0.00 | 0.00 | 35 | 1019.4 |
| 20260504174543 | 75 | 92 | 2.0 | 2.0 | 0.00 | 0.00 | 0.00 | 37 | 1019.1 |
| 20260504174039 | 76 | 307 | 2.0 | 3.0 | 0.00 | 0.00 | 0.00 | 38 | 1019.2 |
| 20260504173536 | 75 | 230 | 0.0 | 0.0 | 0.00 | 0.00 | 0.00 | 37 | 1019.4 |
| 20260504173033 | 74 | 253 | 2.0 | 2.0 | 0.00 | 0.00 | 0.00 | 39 | 1019.4 |
| 20260504172529 | 76 | 250 | 3.0 | 3.0 | 0.00 | 0.00 | 0.00 | 36 | 1019.5 |
| 20260504172026 | 75 | 116 | 1.0 | 1.0 | 0.00 | 0.00 | 0.00 | 37 | 1019.3 |
| 20260504171523 | 74 | 175 | 3.0 | 3.0 | 0.00 | 0.00 | 0.00 | 36 | 1019.4 |
| 20260504171020 | 75 | 137 | 5.0 | 7.0 | 0.00 | 0.00 | 0.00 | 38 | 1019.4 |
| 20260504170515 | 75 | 220 | 0.0 | 0.0 | 0.00 | 0.00 | 0.00 | 42 | 1019.4 |
| 20260504160436 | 71 | 134 | 1.0 | 1.0 | 0.00 | 0.00 | 0.00 | 43 | 1020.3 |
| 20260504150906 | 71 | 241 | 1.0 | 1.0 | 0.00 | 0.00 | 0.00 | 37 | 1020.9 |
| 20260504150402 | 71 | 284 | 4.0 | 4.0 | 0.00 | 0.00 | 0.00 | 35 | 1021.0 |
| 20260504141332 | 68 | 170 | 3.0 | 3.0 | 0.00 | 0.00 | 0.00 | 58 | 1021.1 |
| 20260504140829 | 68 | 162 | 0.0 | 0.0 | 0.00 | 0.00 | 0.00 | 60 | 1021.2 |
| 20260504140324 | 66 | 162 | 1.0 | 1.0 | 0.00 | 0.00 | 0.00 | 62 | 1021.2 |
| 20260504130753 | 59 | 223 | 1.0 | 1.0 | 0.00 | 0.00 | 0.00 | 80 | 1021.0 |
| 20260504130249 | 58 | 227 | 0.0 | 0.0 | 0.00 | 0.00 | 0.00 | 82 | 1021.0 |
| 20260504120213 | 48 | 239 | 1.0 | 1.0 | 0.00 | 0.00 | 0.00 | 99 | 1020.7 |
| 20260504110640 | 45 | 206 | 0.0 | 0.0 | 0.00 | 0.00 | 0.00 | 99 | 1020.3 |
| 20260504110137 | 45 | 223 | 0.0 | 0.0 | 0.00 | 0.00 | 0.00 | 99 | 1020.4 |
| 20260504081956 | 47 | 236 | 0.0 | 0.0 | 0.00 | 0.00 | 0.00 | 99 | 1020.2 |
| 20260504080949 | 46 | 228 | 0.0 | 0.0 | 0.00 | 0.00 | 0.00 | 99 | 1020.0 |
| 20260504050259 | 50 | 229 | 0.0 | 0.0 | 0.00 | 0.00 | 0.00 | 97 | 1021.0 |
| 20260504045751 | 50 | 229 | 0.0 | 0.0 | 0.00 | 0.00 | 0.00 | 97 | 1020.9 |
| 20260504045250 | 50 | 230 | 0.0 | 0.0 | 0.00 | 0.00 | 0.00 | 96 | 1021.0 |
| 20260504044748 | 50 | 230 | 0.0 | 0.0 | 0.00 | 0.00 | 0.00 | 96 | 1020.9 |
| 20260504044245 | 49 | 229 | 0.0 | 0.0 | 0.00 | 0.00 | 0.00 | 95 | 1020.9 |
| 20260504043742 | 50 | 229 | 0.0 | 0.0 | 0.00 | 0.00 | 0.00 | 95 | 1020.9 |
| 20260504043239 | 51 | 229 | 0.0 | 0.0 | 0.00 | 0.00 | 0.00 | 95 | 1021.0 |
| 20260504042737 | 51 | 224 | 0.0 | 0.0 | 0.00 | 0.00 | 0.00 | 95 | 1020.9 |
| 20260504042233 | 51 | 212 | 0.0 | 0.0 | 0.00 | 0.00 | 0.00 | 95 | 1020.7 |
| 20260504041225 | 51 | 229 | 0.0 | 0.0 | 0.00 | 0.00 | 0.00 | 94 | 1020.8 |
| 20260504040722 | 51 | 221 | 0.0 | 0.0 | 0.00 | 0.00 | 0.00 | 94 | 1020.7 |
| 20260504040219 | 51 | 234 | 0.0 | 0.0 | 0.00 | 0.00 | 0.00 | 94 | 1020.8 |
| 20260504035715 | 51 | 226 | 0.0 | 0.0 | 0.00 | 0.00 | 0.00 | 93 | 1020.8 |
| 20260504035213 | 52 | 198 | 0.0 | 0.0 | 0.00 | 0.00 | 0.00 | 92 | 1020.5 |
| 20260504034710 | 52 | 192 | 0.0 | 0.0 | 0.00 | 0.00 | 0.00 | 92 | 1020.6 |
| 20260504033705 | 52 | 208 | 0.0 | 0.0 | 0.00 | 0.00 | 0.00 | 91 | 1020.8 |
| 20260504033202 | 52 | 205 | 0.0 | 0.0 | 0.00 | 0.00 | 0.00 | 91 | 1020.6 |
| 20260504032658 | 53 | 203 | 0.0 | 0.0 | 0.00 | 0.00 | 0.00 | 91 | 1020.7 |
| 20260504032156 | 53 | 216 | 0.0 | 0.0 | 0.00 | 0.00 | 0.00 | 90 | 1020.6 |
| 20260504031653 | 53 | 200 | 0.0 | 0.0 | 0.00 | 0.00 | 0.00 | 90 | 1020.7 |
| 20260504031149 | 53 | 216 | 0.0 | 0.0 | 0.00 | 0.00 | 0.00 | 90 | 1020.6 |
| 20260504030646 | 53 | 217 | 0.0 | 0.0 | 0.00 | 0.00 | 0.00 | 88 | 1020.7 |
| 20260504030143 | 54 | 217 | 0.0 | 0.0 | 0.00 | 0.00 | 0.00 | 87 | 1020.6 |
| 20260504025639 | 54 | 231 | 0.0 | 0.0 | 0.00 | 0.00 | 0.00 | 86 | 1020.5 |
| 20260504025136 | 54 | 231 | 0.0 | 0.0 | 0.00 | 0.00 | 0.00 | 85 | 1020.6 |
| 20260504024634 | 54 | 216 | 0.0 | 0.0 | 0.00 | 0.00 | 0.00 | 84 | 1020.6 |
| 20260504024130 | 55 | 204 | 0.0 | 0.0 | 0.00 | 0.00 | 0.00 | 84 | 1020.5 |
| 20260504023627 | 55 | 235 | 1.0 | 1.0 | 0.00 | 0.00 | 0.00 | 83 | 1020.4 |